This demonstration page uses our WeatherBlox Daily Observations layout. Learn more.

Left ArrowRight Arrow

36.17497, -115.13722

Hourly Observations for January 21, 2016

Temp ( °F °C ) Dew Point ( °F °C ) Humidity (%) Winds ( mph kmh ) Pressure ( in mb ) Visibility ( mi km ) Precip ( " mm )
12:53 am 00:53 Clear 45 7.2 37 2.8 74 74 WSW 5 7 30.39 1029 10 16.0934 0 0
1:53 am 01:53 Clear 45 7.2 35 1.7 68 68 W 3 6 30.4 1030 10 16.0934 0 0
2:53 am 02:53 Clear 41 5 34 1.1 76 76 WNW 5 7 30.41 1030 10 16.0934 0 0
3:53 am 03:53 Clear 40 4.4 34 1.1 79 79 W 5 7 30.41 1030 10 16.0934 0 0
4:53 am 04:53 Clear 40 4.4 33 0.6 77 77 Calm 30.43 1030 10 16.0934 0 0
5:53 am 05:53 Clear 39 3.9 31 -0.6 73 73 NNW 3 6 30.44 1031 10 16.0934 0 0
6:53 am 06:53 Sunny 38 3.3 30 -1.1 73 73 Calm 30.46 1032 10 16.0934 0 0
7:53 am 07:53 Sunny 41 5 31 -0.6 67 67 Calm 30.47 1032 10 16.0934 0 0
8:53 am 08:53 Sunny 47 8.3 31 -0.6 54 54 Calm 30.48 1032 10 16.0934 0 0
9:53 am 09:53 Sunny 50 10 28 -2.2 43 43 Calm 30.48 1032 10 16.0934 0 0
10:53 am 10:53 Sunny 52 11.1 29 -1.7 41 41 Calm 30.46 1031 10 16.0934 0 0
11:53 am 11:53 Sunny 56 13.3 27 -2.8 33 33 Calm 30.42 1030 10 16.0934 0 0
12:53 pm 12:53 Sunny 56 13.3 27 -2.8 33 33 Calm 30.39 1029 10 16.0934 0 0
1:53 pm 13:53 Sunny 57 13.9 25 -3.9 29 29 Calm 30.37 1028 10 16.0934 0 0
2:53 pm 14:53 Sunny 57 13.9 22 -5.6 26 26 Calm 30.36 1028 10 16.0934 0 0
3:53 pm 15:53 Sunny 58 14.4 21 -6.1 24 24 Calm 30.36 1028 10 16.0934 0 0
4:53 pm 16:53 Sunny 56 13.3 20 -6.7 24 24 Calm 30.36 1028 10 16.0934 0 0
5:53 pm 17:53 Clear 53 11.7 21 -6.1 28 28 Calm 30.37 1028 10 16.0934 0 0
6:53 pm 18:53 Clear 50 10 24 -4.4 36 36 Calm 30.37 1029 10 16.0934 0 0
7:53 pm 19:53 Clear 48 8.9 26 -3.3 42 42 NW 5 7 30.37 1028 10 16.0934 0 0
8:53 pm 20:53 Clear 46 7.8 27 -2.8 47 47 WNW 5 7 30.36 1028 10 16.0934 0 0
9:53 pm 21:53 Clear 47 8.3 25 -3.9 42 42 W 6 9 30.34 1027 10 16.0934 0 0
10:53 pm 22:53 Clear 45 7.2 27 -2.8 49 49 NW 3 6 30.33 1027 10 16.0934 0 0
11:53 pm 23:53 Clear 44 6.7 27 -2.8 51 51 NW 3 6 30.31 1027 10 16.0934 0 0

Powered by AerisWeather